This is the latest recevied weather packets stored in our database for station/object GW7287. If no packets are shown the sender has not sent any weather packets the latest 10 day(s).
| Time | Temp. | Humidity | Pressure | Rain* | Wind** | Luminosity | Snow |
|---|---|---|---|---|---|---|---|
| 1788300721 | 22.78° C | 30% | 935.8 hPa | - | - | - | - |
| 1788299594 | 22.78° C | 30% | 935.8 hPa | - | - | - | - |
| 1788289660 | 28.33° C | 24% | 933.6 hPa | - | - | - | - |
| 1788289264 | 28.33° C | 24% | 933.6 hPa | - | - | - | - |
| 1788278080 | 30° C | 19% | 933.9 hPa | - | - | - | - |
| 1788275950 | 29.44° C | 25% | 934.3 hPa | - | - | - | - |
| 1788263609 | 24.44° C | 45% | 935.3 hPa | - | - | - | - |
| 1788259698 | 21.67° C | 55% | 935.6 hPa | - | - | - | - |
| 1788243996 | 13.33° C | 83% | 934.5 hPa | - | - | - | - |
| 1788242001 | 13.33° C | 83% | 934.5 hPa | - | - | - | - |
| 1788224594 | 17.22° C | 69% | 935.3 hPa | - | - | - | - |
| 1788221591 | 18.33° C | 62% | 935.5 hPa | - | - | - | - |
| 1788213500 | 21.67° C | 49% | 935.4 hPa | - | - | - | - |
| 1788208208 | 23.33° C | 42% | 934.6 hPa | - | - | - | - |
| 1788196200 | 29.44° C | 19% | 934.1 hPa | - | - | - | - |
| 1788187035 | 28.33° C | 25% | 935.2 hPa | - | - | - | - |
| 1788167514 | 15.56° C | 73% | 936.7 hPa | - | - | - | - |
| 1788157556 | 13.33° C | 91% | 935.9 hPa | - | - | - | - |
| 1788144889 | 14.44° C | 80% | 935.7 hPa | - | - | - | - |
| 1788134566 | 18.89° C | 46% | 935.4 hPa | - | - | - | - |
| 1788133201 | 18.89° C | 46% | 935.4 hPa | - | - | - | - |
| 1788126251 | 20° C | 36% | 934.6 hPa | - | - | - | - |
| 1788124777 | 21.67° C | 33% | 934.2 hPa | - | - | - | - |
| 1788113787 | 27.22° C | 28% | 933.2 hPa | - | - | - | - |
| 1788113332 | 27.22° C | 28% | 933.2 hPa | - | - | - | - |
* Rain since midnight (hover to see other rain measurements)
** Current wind speed in m/s (hover to see current wind gust speed)